Flag for Sudan Weather past 2 weeks in Port Sudan, Sudan

Now
77 °F

Clear.


Feels Like: 79 °F
Forecast: 70 / 85 °F
Wind: 7 mph from Northwest

Location: Jeddah King Abdul Aziz International Airport

Current Time: Mar 2, 2015 at 11:01:35 PM

Latest Report: Mar 2, 2015 at 10:00 PM


Visibility: 10 mi

Pressure: 29.92 "Hg

Humidity: 69%

Dew point: 66 °F

Location of Port SudanLocation

Historic Weather in Port Sudan — Graph

°F

Port Sudan temperature yesterday

Maximum temperature yesterday: 86 °F (at 1:00 PM)
Minimum temperature yesterday: 72 °F (at 5:00 AM)
Average temperature yesterday: 79 °F

Past Weeks' High & Low Weather Summary

 TemperatureHumidityPressure
High95 °F (Feb 27, 1:00 PM)88% (Feb 18, 5:00 AM)30.01 "Hg (Feb 18, 5:00 AM)
Low63 °F (Feb 21, 5:00 AM)15% (Feb 27, 1:00 PM)29.74 "Hg (Feb 25, 3:00 AM)
Average78 °F55%29.87 "Hg
* Reported Feb 15 10:00 PM — Mar 2 10:00 PM, Port Sudan, Weather by CustomWeather, © 2015

Note: Actual official high and low records may vary slightly from our data, if they occured in-between our weather recording intervals... More about our weather records

Advertising

Port Sudan weather history for previous 24 hours

 ConditionsComfort  
Time TempWeatherWind HumidityBarometerVisibility
10:00 PM
Mon, Mar 2
77 °FClear.7 mph69%29.92 "Hg10 mi
9:00 PM77 °FClear.9 mph69%29.92 "Hg10 mi
8:00 PM77 °FClear.9 mph69%29.89 "Hg10 mi
7:00 PM79 °FClear.9 mph65%29.86 "Hg10 mi
6:00 PM81 °FSunny.9 mph58%29.86 "Hg10 mi
5:00 PM81 °FSunny.12 mph54%29.83 "Hg10 mi
4:00 PM82 °FSunny.14 mph55%29.83 "Hg10 mi
3:00 PM82 °FSunny.12 mph51%29.83 "Hg10 mi
2:00 PM84 °FSunny.9 mph51%29.86 "Hg10 mi
1:00 PM84 °FSunny.7 mph51%29.86 "Hg10 mi
12:00 PM82 °FSunny.12 mph58%29.89 "Hg10 mi
11:00 AM81 °FPassing clouds.6 mph62%29.89 "HgN/A
10:00 AM79 °FPassing clouds.5 mph65%29.92 "HgN/A
9:00 AM75 °FScattered clouds.No wind74%29.89 "HgN/A
8:00 AM73 °FSunny.6 mph78%29.86 "Hg10 mi
7:00 AM72 °FSunny.6 mph83%29.83 "Hg10 mi
6:00 AM72 °FClear.6 mph83%29.80 "Hg10 mi
5:00 AM72 °FClear.5 mph83%29.80 "Hg10 mi
4:00 AM73 °FClear.2 mph78%29.80 "Hg10 mi
3:00 AM73 °FClear.6 mph78%29.80 "Hg10 mi
2:00 AM73 °FClear.7 mph78%29.83 "Hg10 mi
1:00 AM75 °FClear.6 mph74%29.83 "Hg10 mi
12:00 AM75 °FClear.7 mph74%29.83 "Hg10 mi
11:00 PM
Sun, Mar 1
75 °FClear.7 mph74%29.83 "Hg10 mi
Weather by CustomWeather, © 2015

See weather overviewHow to use our weather pages